Glasgow, KY

11:56 PM CST on December 12, 2017 (GMT -0600)
Glasgow Municipal

Weather History for KGLW - May, 2014

Change the Weather History Date:

Saturday, May 10, 2014

  Actual Average Record
Temperature  
Mean Temperature 70 °F -  
Max Temperature 77 °F 75 °F 89 °F (1986)
Min Temperature 62 °F 48 °F 30 °F (1966)
Cooling Degree Days 4    
Growing Degree Days 20 (Base 50)    
Moisture  
Dew Point 63 °F    
Average Humidity 88    
Maximum Humidity 100    
Minimum Humidity 60    
Precipitation  
Precipitation 0.60 in - - ()
Sea Level Pressure  
Sea Level Pressure 30.00 in    
Wind  
Wind Speed 3 mph (SW)    
Max Wind Speed 13 mph    
Max Gust Speed 50 mph    
Visibility 9 miles    
Events Rain , Thunderstorm    
Averages and records for this station are not official NWS values.
T = Trace of Precipitation, MM = Missing Value Source: NWS Daily Summary

Daily Weather History Graph

Daily Weather History Graph

Search for Another Location

Airport or City:

Trip Planner

Search our weather history database for the weather conditions in past years. The results will help you decide how hot, cold, wet, or windy it might be!

Date:

Astronomy

May. 10, 2014 Rise Set
Actual Time 5:40 AM CDT 7:40 PM CDT
Civil Twilight 5:11 AM CDT 8:09 PM CDT
Nautical Twilight 4:36 AM CDT 8:44 PM CDT
Astronomical Twilight 3:59 AM CDT 9:22 PM CDT
Moon 3:41 PM CDT (5/10) 3:06 AM CDT (5/10)
Length of Visible Light 14h 58m
Length of Day
14h 00m
Waxing Gibbous, 82% of the Moon is Illuminated
May 10
Waxing Gibbous
May 14
Full
May 21
Last Quarter
May 28
New
Jun 5
First Quarter

Hourly Weather History & Observations

Time (CDT) Temp. Dew Point Humidity Pressure Visibility Wind Dir Wind Speed Gust Speed Precip Events Conditions
12:15 AM 67.1 °F 60.1 °F 78% 30.01 in 10.0 mi South 3.5 mph - N/A   Overcast
12:35 AM 66.9 °F 60.3 °F 79% 30.01 in 10.0 mi SSW 3.5 mph - N/A Rain Light Rain
12:55 AM 66.0 °F 60.8 °F 83% 30.01 in 10.0 mi South 3.5 mph - 0.03 in Rain Light Rain
1:15 AM 65.1 °F 61.9 °F 89% 29.99 in 10.0 mi SSE 3.5 mph - 0.02 in Rain Light Rain
1:35 AM 64.9 °F 63.0 °F 93% 29.99 in 10.0 mi Calm Calm - 0.02 in   Overcast
1:55 AM 64.9 °F 62.4 °F 92% 30.01 in 10.0 mi NW 3.5 mph - 0.02 in Rain Light Rain
2:15 AM 64.6 °F 64.2 °F 99% 30.00 in 10.0 mi Calm Calm - N/A   Overcast
2:35 AM 64.2 °F 64.2 °F 100% 30.00 in 10.0 mi Calm Calm - N/A   Overcast
2:55 AM 63.9 °F 63.9 °F 100% 29.99 in 10.0 mi Calm Calm - N/A Thunderstorm Overcast
3:15 AM 63.9 °F 63.9 °F 100% 30.00 in 10.0 mi Calm Calm - N/A   Overcast
3:35 AM 64.0 °F 64.0 °F 100% 30.00 in 10.0 mi Calm Calm - N/A Thunderstorm Overcast
3:55 AM 63.9 °F 63.9 °F 100% 30.00 in 10.0 mi Calm Calm - N/A   Overcast
4:15 AM 64.2 °F 62.2 °F 93% 29.99 in 10.0 mi Calm Calm - N/A   Overcast
4:35 AM 64.4 °F 61.3 °F 90% 29.99 in 10.0 mi Calm Calm - N/A   Overcast
4:55 AM 64.4 °F 61.5 °F 90% 29.99 in 10.0 mi SSE 4.6 mph - N/A   Overcast
5:15 AM 64.4 °F 61.5 °F 90% 29.99 in 10.0 mi Calm Calm - N/A   Overcast
5:35 AM 64.2 °F 62.8 °F 95% 29.98 in 10.0 mi SSE 3.5 mph - N/A   Overcast
5:55 AM 63.9 °F 63.7 °F 99% 29.98 in 10.0 mi Calm Calm - N/A   Overcast
6:15 AM 64.0 °F 63.1 °F 97% 29.99 in 10.0 mi South 3.5 mph - N/A Thunderstorm Overcast
6:35 AM 64.2 °F 63.0 °F 96% 30.01 in 10.0 mi NW 4.6 mph - N/A Thunderstorm Overcast
6:55 AM 64.4 °F 64.4 °F 100% 30.02 in 10.0 mi Calm Calm - N/A Thunderstorm Overcast
7:15 AM 63.9 °F 63.7 °F 99% 30.00 in 3.0 mi Calm Calm - 0.16 in Rain , Thunderstorm Light Thunderstorms and Rain
7:35 AM 63.5 °F 63.5 °F 100% 30.03 in 10.0 mi Calm Calm - 0.16 in Rain Light Rain
7:55 AM 63.5 °F 63.5 °F 100% 30.04 in 5.0 mi South 4.6 mph - 0.21 in Rain , Thunderstorm Rain
8:15 AM 63.7 °F 63.7 °F 100% 30.05 in 7.0 mi South 6.9 mph - 0.02 in Rain , Thunderstorm Light Thunderstorms and Rain
8:35 AM 63.7 °F 63.7 °F 100% 30.05 in 5.0 mi SSW 4.6 mph - 0.06 in Rain , Thunderstorm Rain
8:55 AM 63.9 °F 63.9 °F 100% 30.05 in 7.0 mi SSW 6.9 mph - 0.09 in Rain Light Rain
9:15 AM 64.2 °F 64.2 °F 100% 30.05 in 7.0 mi SSW 4.6 mph - 0.01 in Rain Rain
9:35 AM 64.4 °F 64.4 °F 100% 30.02 in 10.0 mi SSE 5.8 mph - 0.02 in   Overcast
9:55 AM 64.8 °F 64.6 °F 99% 30.01 in 10.0 mi SSE 6.9 mph - 0.02 in Rain Light Rain
10:15 AM 65.5 °F 63.9 °F 94% 30.00 in 10.0 mi South 4.6 mph - N/A   Scattered Clouds
10:35 AM 67.3 °F 63.7 °F 88% 30.01 in 10.0 mi South 5.8 mph - N/A   Scattered Clouds
11:15 AM 70.5 °F 63.9 °F 79% 30.01 in 10.0 mi SSW 10.4 mph - N/A   Mostly Cloudy
11:35 AM 71.6 °F 64.0 °F 77% 30.01 in 10.0 mi WSW 11.5 mph - N/A   Overcast
11:55 AM 72.0 °F 63.1 °F 74% 30.01 in 10.0 mi SW 12.7 mph 20.7 mph N/A   Overcast
12:15 PM 71.2 °F 62.4 °F 74% 30.01 in 10.0 mi SW 12.7 mph 18.4 mph N/A   Overcast
12:35 PM 68.9 °F 61.3 °F 77% 30.04 in 5.0 mi West 10.4 mph 49.5 mph 0.03 in Rain , Thunderstorm Heavy Thunderstorms and Rain
12:55 PM 62.4 °F 59.7 °F 91% 30.02 in 4.0 mi SW 5.8 mph - 0.22 in Rain , Thunderstorm Thunderstorms and Rain
1:15 PM 62.8 °F 62.6 °F 99% 29.99 in 10.0 mi South 8.1 mph - 0.01 in   Mostly Cloudy
1:35 PM 64.2 °F 63.7 °F 98% 29.98 in 10.0 mi WSW 3.5 mph - 0.01 in   Mostly Cloudy
1:55 PM 66.2 °F 63.3 °F 90% 29.98 in 10.0 mi Calm Calm - 0.01 in   Scattered Clouds
2:15 PM 69.4 °F 63.9 °F 82% 29.99 in 10.0 mi West 6.9 mph - N/A   Scattered Clouds
2:35 PM 72.0 °F 64.6 °F 77% 29.98 in 10.0 mi WSW 6.9 mph - N/A   Mostly Cloudy
2:55 PM 72.9 °F 64.4 °F 75% 29.98 in 10.0 mi SW 8.1 mph - N/A   Overcast
3:15 PM 73.2 °F 64.4 °F 74% 29.97 in 10.0 mi West 5.8 mph - N/A   Overcast
3:35 PM 75.0 °F 64.4 °F 69% 29.97 in 10.0 mi West 11.5 mph 19.6 mph N/A   Scattered Clouds
3:55 PM 76.1 °F 63.1 °F 64% 29.97 in 10.0 mi West 10.4 mph 17.3 mph N/A   Scattered Clouds
4:15 PM 75.9 °F 62.8 °F 64% 29.98 in 10.0 mi West 5.8 mph - N/A   Mostly Cloudy
4:35 PM 75.6 °F 62.8 °F 64% 29.97 in 10.0 mi WSW 9.2 mph - N/A   Mostly Cloudy
4:55 PM 77.2 °F 63.1 °F 62% 29.97 in 10.0 mi West 5.8 mph - N/A   Scattered Clouds
5:15 PM 77.4 °F 62.6 °F 60% 29.98 in 10.0 mi WNW 6.9 mph - N/A   Scattered Clouds
5:35 PM 76.6 °F 62.1 °F 61% 29.98 in 10.0 mi WSW 5.8 mph - N/A   Scattered Clouds
5:55 PM 75.7 °F 62.1 °F 62% 29.97 in 10.0 mi West 5.8 mph - N/A   Scattered Clouds
6:55 PM 74.8 °F 61.9 °F 64% 29.98 in 10.0 mi Calm Calm - N/A   Scattered Clouds
7:15 PM 73.2 °F 62.6 °F 69% 29.99 in 10.0 mi Calm Calm - N/A   Scattered Clouds
7:35 PM 70.2 °F 63.5 °F 79% 29.99 in 10.0 mi Calm Calm - N/A   Scattered Clouds
7:55 PM 68.4 °F 63.3 °F 84% 29.97 in 10.0 mi SSE 4.6 mph - N/A   Clear
8:15 PM 68.0 °F 62.8 °F 83% 29.99 in 10.0 mi North 3.5 mph - N/A   Clear
8:35 PM 67.3 °F 62.6 °F 85% 30.00 in 10.0 mi Calm Calm - N/A   Clear
8:55 PM 66.2 °F 63.9 °F 92% 30.01 in 10.0 mi Calm Calm - N/A   Clear
9:15 PM 64.6 °F 64.6 °F 100% 30.02 in 10.0 mi Calm Calm - N/A   Clear
9:55 PM 64.4 °F 64.4 °F 100% 30.03 in 10.0 mi Calm Calm - N/A   Clear
10:15 PM 63.7 °F 63.7 °F 100% 30.03 in 7.0 mi Calm Calm - N/A   Clear
10:35 PM 63.5 °F 63.5 °F 100% 30.03 in 5.0 mi Calm Calm - N/A   Clear
10:55 PM 63.0 °F 63.0 °F 100% 30.04 in 5.0 mi Calm Calm - N/A   Clear
11:15 PM 63.1 °F 63.1 °F 100% 30.04 in 7.0 mi Calm Calm - N/A   Scattered Clouds
11:35 PM 63.3 °F 63.3 °F 100% 30.04 in 10.0 mi Calm Calm - N/A   Scattered Clouds
11:55 PM 63.5 °F 63.5 °F 100% 30.04 in 7.0 mi Calm Calm - N/A   Clear